Location: STAR School
(35.3054°N, 111.2976°W)
Time: 04:52:24
(UTC-07:00)

deb Explorer IX - Pass Details

Date: 26 May 2019
Orbit: 537 x 1115 km, 38.8° (Epoch: 16 June)

Event Time Altitude Azimuth Distance (km) Brightness Sun altitude
Exits shadow 04:33:56 - 286° (WNW) 2,731 ? -7.9°
Rises 04:34:04 0° 286° (WNW) 2,676 ? -7.9°
Reaches altitude 10° 04:36:15 10° 289° (WNW) 1,799 ? -7.5°
Maximum altitude 04:40:18 67° 12° (NNE) 616 ? -6.8°
Drops below altitude 10° 04:44:45 10° 96° (E) 1,969 ? -6.1°
Sets 04:47:14 0° 99° (E) 2,956 ? -5.6°
